TimeCST,TemperatureF,Dew PointF,Humidity,Sea Level PressureIn,VisibilityMPH,Wind Direction,Wind SpeedMPH,Gust SpeedMPH,PrecipitationIn,Events,Conditions,WindDirDegrees,DateUTC
12:53 AM,37.9,28.0,68,30.30,-9999.0,SSE,3.5,-,0.00,,Overcast,160,2012-12-31 06:53:00
1:53 AM,37.9,28.0,68,30.30,-9999.0,Calm,Calm,-,N/A,,Overcast,0,2012-12-31 07:53:00
2:53 AM,37.9,28.0,68,30.30,-9999.0,Calm,Calm,-,N/A,,Mostly Cloudy,0,2012-12-31 08:53:00
3:53 AM,37.9,28.9,70,30.29,-9999.0,East,3.5,-,N/A,,Clear,100,2012-12-31 09:53:00
4:53 AM,37.9,28.9,70,30.26,-9999.0,East,3.5,-,N/A,,Overcast,90,2012-12-31 10:53:00
5:53 AM,37.0,28.9,73,30.26,-9999.0,East,4.6,-,N/A,,Overcast,90,2012-12-31 11:53:00
6:53 AM,37.0,28.9,73,30.23,10.0,ESE,5.8,-,N/A,,Overcast,110,2012-12-31 12:53:00
7:53 AM,37.0,28.9,73,30.21,-9999.0,ESE,4.6,-,N/A,,Overcast,110,2012-12-31 13:53:00
8:53 AM,37.0,28.9,73,30.18,-9999.0,East,9.2,-,N/A,,Overcast,90,2012-12-31 14:53:00
9:53 AM,37.9,30.0,73,30.22,10.0,East,5.8,-,0.00,Rain,Light Rain,80,2012-12-31 15:53:00
10:53 AM,37.9,32.0,79,30.19,7.0,East,5.8,-,0.00,Rain,Light Rain,100,2012-12-31 16:53:00
11:53 AM,37.0,34.0,89,30.13,6.0,ESE,8.1,-,0.02,Rain,Light Rain,110,2012-12-31 17:53:00
12:19 PM,37.4,33.8,87,30.10,4.0,East,5.8,-,0.02,Rain,Light Rain,100,2012-12-31 18:19:00
12:38 PM,37.4,35.6,93,30.06,3.0,East,10.4,-,0.04,Rain,Rain,100,2012-12-31 18:38:00
12:53 PM,37.9,35.1,89,30.06,4.0,East,9.2,-,0.05,Rain,Light Rain,90,2012-12-31 18:53:00
1:04 PM,37.4,35.6,93,30.05,4.0,East,5.8,-,0.01,Rain,Light Rain,100,2012-12-31 19:04:00
1:39 PM,37.4,37.4,100,30.03,2.5,East,5.8,-,0.05,Rain,Rain,90,2012-12-31 19:39:00
1:50 PM,37.4,37.4,100,30.02,3.0,East,5.8,-,0.05,Rain,Light Rain,100,2012-12-31 19:50:00
1:53 PM,39.0,37.0,93,30.03,3.0,East,4.6,-,0.05,Rain,Light Rain,100,2012-12-31 19:53:00
2:26 PM,39.2,37.4,93,30.01,2.0,East,5.8,-,0.03,Rain,Rain,80,2012-12-31 20:26:00
2:38 PM,39.2,37.4,93,30.00,-9999.0,East,4.6,-,0.03,Rain,Light Rain,90,2012-12-31 20:38:00
2:53 PM,39.9,37.9,93,30.01,6.0,ESE,3.5,-,0.03,Rain,Light Rain,110,2012-12-31 20:53:00
3:26 PM,39.2,39.2,100,30.00,2.5,ENE,3.5,-,0.02,Rain,Light Rain,60,2012-12-31 21:26:00
3:33 PM,39.2,39.2,100,30.00,3.0,East,3.5,-,0.02,Rain,Light Rain,100,2012-12-31 21:33:00
3:39 PM,41.0,39.2,93,30.00,1.8,Calm,Calm,-,0.03,Rain,Rain,0,2012-12-31 21:39:00
3:53 PM,39.9,39.0,97,30.01,2.0,Calm,Calm,-,0.05,Rain,Light Rain,0,2012-12-31 21:53:00
4:05 PM,41.0,39.2,93,30.06,1.5,WNW,9.2,-,0.01,Rain,Rain,300,2012-12-31 22:05:00
4:16 PM,39.2,39.2,100,30.05,0.8,NW,9.2,18.4,0.09,Rain,Rain,310,2012-12-31 22:16:00
4:21 PM,39.2,39.2,100,30.05,2.0,NW,8.1,18.4,0.09,Rain,Light Rain,320,2012-12-31 22:21:00
4:31 PM,39.2,39.2,100,30.06,1.5,NW,5.8,-,0.11,Rain,Rain,310,2012-12-31 22:31:00
4:39 PM,39.2,39.2,100,30.05,1.8,NW,6.9,-,0.13,Rain,Light Rain,320,2012-12-31 22:39:00
4:44 PM,39.2,39.2,100,30.05,3.0,NNW,4.6,-,0.13,Rain,Light Rain,330,2012-12-31 22:44:00
4:53 PM,39.9,39.0,97,30.06,3.0,NNW,5.8,-,0.13,Rain,Light Rain,330,2012-12-31 22:53:00
5:22 PM,39.2,39.2,100,30.04,2.5,Calm,Calm,-,0.03,Rain,Rain,0,2012-12-31 23:22:00
5:27 PM,39.2,39.2,100,30.03,3.0,SE,4.6,-,0.03,Rain,Light Rain,130,2012-12-31 23:27:00
5:36 PM,39.2,39.2,100,30.03,4.0,SE,4.6,-,0.03,Rain,Light Rain,130,2012-12-31 23:36:00
5:53 PM,41.0,39.0,93,30.04,7.0,Calm,Calm,-,0.03,,Overcast,0,2012-12-31 23:53:00
6:02 PM,41.0,39.2,93,30.03,7.0,Calm,Calm,-,N/A,,Overcast,0,2013-01-01 00:02:00
6:09 PM,41.0,39.2,93,30.03,5.0,Calm,Calm,-,N/A,,Overcast,0,2013-01-01 00:09:00
6:53 PM,41.0,39.0,93,30.03,6.0,Calm,Calm,-,0.00,,Overcast,0,2013-01-01 00:53:00
7:30 PM,41.0,39.2,93,30.02,5.0,Calm,Calm,-,N/A,,Overcast,0,2013-01-01 01:30:00
7:40 PM,41.0,39.2,93,30.03,8.0,Calm,Calm,-,N/A,,Overcast,0,2013-01-01 01:40:00
7:53 PM,39.9,39.0,97,30.04,7.0,ENE,3.5,-,N/A,,Overcast,70,2013-01-01 01:53:00
8:31 PM,39.2,39.2,100,30.03,8.0,East,3.5,-,N/A,,Overcast,90,2013-01-01 02:31:00
8:53 PM,39.9,37.9,93,30.03,9.0,East,3.5,-,N/A,,Overcast,100,2013-01-01 02:53:00
9:37 PM,39.2,37.4,93,30.04,9.0,Calm,Calm,-,N/A,,Overcast,0,2013-01-01 03:37:00
9:53 PM,39.2,37.4,93,30.04,-9999.0,Calm,Calm,-,N/A,,Overcast,0,2013-01-01 03:53:00
10:53 PM,39.0,37.9,96,30.06,6.0,Calm,Calm,-,N/A,,Overcast,0,2013-01-01 04:53:00
11:15 PM,39.2,37.4,93,30.06,1.8,Calm,Calm,-,N/A,,Overcast,0,2013-01-01 05:15:00
11:53 PM,39.0,37.9,96,30.06,1.0,Calm,Calm,-,N/A,,Mist,0,2013-01-01 05:53:00